Location: Morisset
(33.1080°S, 151.4871°E)
Time: 07:56:47
(UTC+00:00)

PSLV R/B - Pass Details

Date: 29 October 2020
Orbit: 595 x 628 km, 97.9° (Epoch: 28 November)

Event Time Altitude Azimuth Distance (km) Brightness Sun altitude
Exits shadow 17:35:46 20° 342° (NNW) 1,446 5.0 -16.4°
Maximum altitude 17:38:24 43° 279° (W) 887 3.9 -15.9°
Drops below altitude 10° 17:42:38 10° 207° (SSW) 2,030 6.2 -15.2°
Sets 17:44:57 0° 200° (SSW) 2,943 7.1 -14.7°
